STARLINK-33977

Last updated on Thu Jul 03 2025 00:02:06 GMT+0000 (Coordinated Universal Time)

1 64344U 25126A 25183.58335648 -.01418294 00000+0 -17151-1 0 9994 2 64344 69.9993 310.2401 0003510 275.3306 287.6461 15.63229406 4325
UTC large
Height (km)
Speed (km/s)
/
Latitude / Longitude
Inclination (degrees)
Orbital Period (minutes)
Azimuth
Elevation
Range (km)
Doppler Factor

Next 0 passes for location: London (51.5072 / 0.1276)

Sorry there are no passes over London.